[[{"header":{"parameterUnit":"m.s-1","parameterCategory":1,"la1":30.2991,"la2":30.254,"lo1":-89.0895,"lo2":-89.0444,"dy":0.0017,"dx":0.0017,"nx":28,"ny":28,"refTime":"2025-11-10T03:00:00:Z","depth":0,"parameterNumber":2,"parameterNumberName":"U-component_of_WINDS"},"data":[0,0,0,0,0,0,0,0,0,0,0,0,0,0,0,0,0,0,0,0,0,0,0,0,0,0,0,0,0,0,0,0,0,0,0,0,0,0,0,0,0,0,0,0,0,0,0,0,0,0,0,0,0,0,0,0,0,0,2.512,2.5121,0,2.5181,2.5182,2.5183,2.5182,2.5182,2.5181,2.518,2.5241,2.5243,2.5245,0,0,0,0,0,0,0,0,0,0,0,0,0,2.5003,2.5005,2.512,2.5121,2.5122,2.5181,2.5182,2.5183,2.5183,2.5182,2.5181,2.518,2.524,2.5243,2.5246,0,0,0,0,0,0,0,0,0,0,0,0,0,2.5058,2.5006,2.512,2.5129,2.513,2.5181,2.5182,2.5183,2.5183,2.5182,2.518,2.5179,2.5239,2.5243,2.5246,2.5292,0,0,2.5257,2.5258,0,0,0,0,0,0,0,0,2.5055,2.5062,2.5127,2.5128,2.513,2.5173,2.5163,2.5219,2.5183,2.5163,2.518,2.5179,2.5219,2.5224,2.5238,2.5294,2.5297,2.5257,2.5259,2.5261,2.5262,0,0,0,0,0,0,0,2.5051,2.506,2.5144,2.5128,2.513,2.513,2.5136,2.5174,2.5197,2.5164,2.5165,2.5172,2.522,2.5235,2.524,2.5298,2.5257,2.526,2.5262,2.5264,2.5397,2.5398,0,0,0,0,0,0,2.5046,2.5057,2.5142,2.5146,2.5089,2.5133,2.514,2.516,2.5196,2.5201,2.5173,2.5172,2.5229,2.5236,2.5242,2.5299,2.5261,2.5264,2.5266,2.5395,2.5397,2.5399,0,0,0,0,0,0,2.5043,2.5053,2.514,2.5102,2.5113,2.5136,2.5159,2.5162,2.5177,2.5203,2.5207,2.5184,2.5229,2.5237,2.528,2.5301,2.5266,2.5269,2.5394,2.5396,2.5398,2.5412,0,0,0,0,0,0,2.504,2.5053,2.507,2.5102,2.5115,2.5177,2.516,2.5164,2.5184,2.5183,2.5214,2.5218,2.5228,2.5275,2.5283,2.5305,2.5272,2.5392,2.5395,2.5397,2.541,2.5414,2.5418,0,0,0,0,0,2.5036,2.507,2.5071,2.5081,2.5137,2.5178,2.5185,2.5197,2.5185,2.5203,2.522,2.5217,2.5297,2.5279,2.5289,2.5312,2.5391,2.5394,2.5397,2.5408,2.5413,2.5418,0,0,0,0,0,0,2.5039,2.5075,2.5075,2.5122,2.5147,2.5178,2.52,2.5202,2.523,2.5228,2.524,2.5248,2.5291,2.5306,2.5285,2.5359,2.5343,2.5348,2.5347,2.5353,2.5357,2.5352,2.5275,0,0,0,0,0,2.5045,2.5076,2.5105,2.5143,2.5156,2.5176,2.5195,2.5202,2.5228,2.5238,2.5258,2.5284,2.5315,2.5335,2.5365,2.5412,2.542,2.5433,2.5437,2.5441,2.5445,2.5473,2.5479,2.5409,2.5409,2.5409,0,0,2.5058,2.5081,2.51,2.5145,2.5165,2.5197,2.5185,2.5219,2.5243,2.5243,2.5285,2.5301,2.5331,2.5377,2.5398,2.539,2.5466,2.5445,2.5447,2.545,2.5477,2.5483,2.5489,2.5411,2.5411,2.5411,0,0,2.5097,2.5118,2.5152,2.5174,2.5206,2.5219,2.5228,2.5259,2.527,2.5313,2.5315,2.5344,2.5396,2.5418,2.5436,2.5487,2.5486,2.5496,2.5518,2.5545,2.555,2.5555,2.5574,2.558,2.55,2.55,2.55,0,2.5108,2.5157,2.517,2.5204,2.5224,2.5229,2.5264,2.5284,2.5323,2.5337,2.5329,2.5397,2.5417,2.5469,2.5482,2.5496,2.5506,2.5492,2.5549,2.5554,2.5558,2.5576,2.5583,2.5501,2.5501,2.5501,2.5501,0,2.517,2.5203,2.5227,2.5267,2.529,2.5325,2.5343,2.5365,2.5371,2.5386,2.543,2.5455,2.5491,2.5504,2.5509,2.5557,2.5552,2.5546,2.553,2.5566,2.5583,2.559,2.5503,2.5503,2.5502,2.5502,0,0,2.521,2.5259,2.5267,2.5286,2.5323,2.5349,2.5385,2.5421,2.544,2.5468,2.5498,2.5544,2.554,2.556,2.5568,2.5592,2.5632,2.5584,2.5584,2.5592,2.5688,2.5692,2.5699,2.5633,2.5634,2.5635,2.5685,0,2.5253,2.5317,2.5331,2.5386,2.5418,2.5424,2.5455,2.5481,2.5497,2.5526,2.5543,2.5576,2.5567,2.558,2.5604,2.5622,2.5652,2.5619,2.5661,2.5662,2.5653,2.5708,2.5712,2.5758,2.5692,2.5693,2.5694,0,2.5311,2.5342,2.5401,2.5435,2.5449,2.5477,2.5512,2.554,2.5571,2.5581,2.5605,2.5611,2.5649,2.5633,2.5686,2.5663,2.5682,2.5694,2.5696,2.5699,2.568,2.5713,2.5773,2.578,2.5705,2.5704,2.5703,0,2.5335,2.5392,2.5434,2.545,2.5491,2.5511,2.5529,2.5559,2.558,2.5611,2.5626,2.5661,2.5679,2.5707,2.5723,2.5709,2.5775,2.5759,2.5784,2.5784,2.5796,2.5795,2.586,2.5809,2.5809,2.5809,2.5809,0,2.5381,2.5417,2.5446,2.5472,2.5512,2.5529,2.5569,2.5587,2.5614,2.5644,2.5651,2.5679,2.5699,2.573,2.5743,2.5785,2.5794,2.5803,2.5806,2.5802,2.5801,2.5813,2.581,2.5811,2.5811,2.581,2.581,0,2.5414,2.5435,2.5482,2.5518,2.5528,2.5556,2.5588,2.5614,2.5631,2.5669,2.5679,2.5705,2.5742,2.5761,2.5807,2.5816,2.5864,2.5865,2.5854,2.5855,2.5879,2.5877,2.5953,2.5965,2.5907,2.5908,2.5908,0,2.5442,2.5469,2.551,2.5531,2.555,2.5583,2.5606,2.5625,2.5648,2.5687,2.5708,2.5746,2.5777,2.5837,2.586,2.5896,2.5898,2.5923,2.5903,2.5899,2.5898,2.5896,2.5899,2.5925,2.5926,2.5926,2.5927,0,2.5489,2.5498,2.5531,2.5568,2.5595,2.5625,2.5654,2.5671,2.5695,2.5721,2.576,2.5784,2.5833,2.587,2.5909,2.5928,2.5931,2.5933,2.5941,2.5937,2.5929,2.5934,2.5863,2.5931,2.593,2.593,2.593,2.593,2.552,2.5545,2.5578,2.5615,2.5639,2.5667,2.5694,2.5715,2.5748,2.5789,2.5799,2.584,2.5872,2.5924,2.5945,2.5978,2.5972,2.5983,2.5986,2.5988,2.599,2.5925,2.5985,2.5985,2.5985,2.5984,2.5984,0,2.5567,2.5589,2.5623,2.5665,2.5694,2.5697,2.573,2.5754,2.5791,2.5821,2.5852,2.5898,2.5936,2.5963,2.6002,2.6023,2.6026,2.6032,2.603,2.6035,2.5992,2.5981,2.6029,2.6029,2.6029,2.6029,2.6029,2.6029,2.5595,2.5639,2.5653,2.571,2.5732,2.5773,2.5792,2.5818,2.5842,2.5893,2.5925,2.5943,2.5973,2.6014,2.6049,2.6056,2.607,2.6076,2.6084,2.6043,2.6038,2.6033,2.6023,2.6079,2.6079,2.6124,2.6124,2.6124]},{"header":{"parameterUnit":"m.s-1","parameterCategory":1,"la1":30.2991,"la2":30.254,"lo1":-89.0895,"lo2":-89.0444,"dy":0.0017,"dx":0.0017,"nx":28,"ny":28,"refTime":"2025-11-10T03:00:00:Z","depth":0,"parameterNumber":3,"parameterNumberName":"V-component_of_WINDS"},"data":[0,0,0,0,0,0,0,0,0,0,0,0,0,0,0,0,0,0,0,0,0,0,0,0,0,0,0,0,0,0,0,0,0,0,0,0,0,0,0,0,0,0,0,0,0,0,0,0,0,0,0,0,0,0,0,0,0,0,-9.9738,-9.974,0,-9.993,-9.9932,-9.9934,-9.9835,-9.983,-9.9825,-9.982,-10.0008,-10.0018,-10.0027,0,0,0,0,0,0,0,0,0,0,0,0,0,-9.9279,-9.9288,-9.9737,-9.974,-9.9742,-9.9929,-9.9932,-9.9934,-9.9836,-9.983,-9.9824,-9.9818,-10.0005,-10.0016,-10.0028,0,0,0,0,0,0,0,0,0,0,0,0,0,-9.9475,-9.9291,-9.9737,-9.9716,-9.9716,-9.9929,-9.9932,-9.9935,-9.9837,-9.983,-9.9822,-9.9815,-10.0001,-10.0015,-10.003,-10.0271,0,0,-10.0074,-10.0081,0,0,0,0,0,0,0,0,-9.9464,-9.9492,-9.9717,-9.9718,-9.9718,-9.9851,-9.9839,-10.0048,-9.9839,-9.9791,-9.982,-9.9811,-9.9961,-9.9979,-10.0031,-10.028,-10.0288,-10.0076,-10.0084,-10.0091,-10.0095,0,0,0,0,0,0,0,-9.9451,-9.9483,-9.9813,-9.972,-9.9721,-9.9695,-9.9714,-9.9878,-9.9916,-9.9795,-9.9788,-9.9813,-9.996,-10.0017,-10.0035,-10.0291,-10.0075,-10.0088,-10.0097,-10.0103,-10.075,-10.0758,0,0,0,0,0,0,-9.9439,-9.9473,-9.9807,-9.9819,-9.957,-9.9709,-9.9731,-9.9816,-9.9914,-9.9922,-9.9819,-9.9807,-9.9996,-10.0018,-10.0041,-10.0332,-10.0091,-10.0104,-10.0113,-10.0741,-10.0752,-10.0761,0,0,0,0,0,0,-9.943,-9.947,-9.9799,-9.9644,-9.9684,-9.9725,-9.9821,-9.9824,-9.9881,-9.9933,-9.9938,-9.9871,-9.9991,-10.002,-10.0216,-10.0337,-10.0111,-10.0124,-10.0731,-10.0745,-10.0756,-10.0916,0,0,0,0,0,0,-9.9417,-9.9467,-9.9561,-9.9647,-9.9693,-9.9974,-9.9829,-9.9833,-9.9907,-9.9894,-9.9983,-9.999,-9.9987,-10.0195,-10.0231,-10.0353,-10.0135,-10.0721,-10.0737,-10.0752,-10.09,-10.0932,-10.096,0,0,0,0,0,-9.9401,-9.9596,-9.9566,-9.9607,-9.9811,-9.9981,-10.0007,-10.0002,-9.9917,-10.0011,-10.0045,-9.9987,-10.0318,-10.0216,-10.0255,-10.0384,-10.0713,-10.0733,-10.0751,-10.0886,-10.0926,-10.0959,0,0,0,0,0,0,-9.9519,-9.9607,-9.9575,-9.9804,-9.9886,-9.9964,-10.0082,-10.0044,-10.015,-10.0133,-10.012,-10.0141,-10.0344,-10.0383,-10.0267,-10.0624,-10.0502,-10.053,-10.0591,-10.063,-10.0659,-10.0645,-10.0147,0,0,0,0,0,-9.9573,-9.9706,-9.9773,-9.9969,-10.0012,-10.0041,-10.0114,-10.0104,-10.0188,-10.0221,-10.0268,-10.035,-10.0472,-10.0552,-10.0668,-10.0905,-10.0923,-10.1013,-10.1043,-10.1067,-10.1091,-10.1221,-10.1262,-10.0823,-10.0823,-10.0823,0,0,-9.9683,-9.9747,-9.9831,-9.9994,-10.0057,-10.0193,-10.007,-10.0219,-10.0319,-10.0242,-10.0431,-10.047,-10.0559,-10.0777,-10.0875,-10.0815,-10.1217,-10.1092,-10.1111,-10.1122,-10.1245,-10.1286,-10.1323,-10.0836,-10.0834,-10.0832,0,0,-9.9954,-10.0016,-10.0187,-10.0253,-10.0351,-10.0369,-10.041,-10.0495,-10.0519,-10.0709,-10.0654,-10.0772,-10.0983,-10.105,-10.1111,-10.1411,-10.1362,-10.1448,-10.1606,-10.1732,-10.1767,-10.1797,-10.1905,-10.1944,-10.1472,-10.1473,-10.1473,0,-10.0078,-10.0284,-10.0278,-10.0433,-10.0507,-10.0447,-10.0619,-10.0683,-10.0812,-10.0863,-10.0795,-10.1061,-10.1116,-10.135,-10.1424,-10.1475,-10.1521,-10.1438,-10.1763,-10.1793,-10.1822,-10.1924,-10.1965,-10.1482,-10.1481,-10.148,-10.1479,0,-10.0432,-10.0575,-10.0701,-10.0832,-10.092,-10.1082,-10.11,-10.1189,-10.1171,-10.1196,-10.1391,-10.1456,-10.1585,-10.1639,-10.1622,-10.1871,-10.1832,-10.1764,-10.1641,-10.1874,-10.197,-10.2009,-10.1497,-10.1493,-10.149,-10.1488,0,0,-10.0781,-10.091,-10.0956,-10.1016,-10.1121,-10.123,-10.139,-10.1519,-10.1596,-10.1687,-10.1821,-10.2002,-10.1941,-10.2011,-10.2,-10.2112,-10.2347,-10.203,-10.2032,-10.2088,-10.2626,-10.2678,-10.2723,-10.2315,-10.2322,-10.2328,-10.2619,0,-10.1061,-10.1344,-10.1345,-10.1605,-10.1738,-10.1684,-10.1823,-10.1901,-10.1929,-10.2044,-10.2073,-10.2203,-10.2111,-10.2154,-10.2261,-10.2296,-10.2455,-10.2274,-10.2438,-10.2444,-10.2418,-10.2774,-10.2828,-10.3099,-10.2657,-10.2663,-10.2668,0,-10.1424,-10.1532,-10.1807,-10.1895,-10.195,-10.2076,-10.2196,-10.2307,-10.2394,-10.2406,-10.2487,-10.246,-10.2621,-10.2494,-10.2716,-10.2593,-10.266,-10.2687,-10.2697,-10.2712,-10.257,-10.2799,-10.3185,-10.3227,-10.2727,-10.2722,-10.2718,0,-10.1653,-10.1867,-10.206,-10.2112,-10.2219,-10.2309,-10.2357,-10.2437,-10.2516,-10.2619,-10.267,-10.2789,-10.2855,-10.2947,-10.2953,-10.286,-10.3177,-10.305,-10.3191,-10.3191,-10.326,-10.3256,-10.3663,-10.3302,-10.3302,-10.3301,-10.33,0,-10.1966,-10.2136,-10.2165,-10.2283,-10.2472,-10.2471,-10.2658,-10.2697,-10.277,-10.2894,-10.2853,-10.297,-10.297,-10.3089,-10.3094,-10.3277,-10.3307,-10.332,-10.332,-10.3325,-10.3323,-10.3368,-10.335,-10.3312,-10.3309,-10.3307,-10.3305,0,-10.2254,-10.228,-10.2487,-10.2573,-10.2598,-10.2734,-10.2806,-10.2918,-10.2943,-10.3101,-10.3137,-10.3175,-10.3313,-10.3329,-10.3488,-10.3491,-10.3713,-10.3691,-10.3685,-10.3682,-10.3822,-10.3809,-10.4274,-10.4335,-10.3933,-10.3937,-10.394,0,-10.2452,-10.2583,-10.2684,-10.2766,-10.282,-10.2952,-10.3033,-10.3037,-10.3123,-10.3234,-10.3333,-10.3467,-10.3575,-10.3797,-10.3838,-10.3959,-10.3941,-10.4096,-10.3959,-10.3961,-10.3945,-10.3938,-10.3951,-10.4122,-10.4126,-10.413,-10.4133,0,-10.2801,-10.2809,-10.2929,-10.3055,-10.3154,-10.3252,-10.3344,-10.3413,-10.3428,-10.3526,-10.3669,-10.3753,-10.3918,-10.4052,-10.4172,-10.4218,-10.4179,-10.4176,-10.4215,-10.4222,-10.4213,-10.4221,-10.3758,-10.4165,-10.4162,-10.416,-10.4158,-10.4157,-10.3051,-10.3166,-10.3256,-10.3392,-10.3463,-10.355,-10.3661,-10.3702,-10.3822,-10.3959,-10.3953,-10.411,-10.4195,-10.4353,-10.4409,-10.4531,-10.4479,-10.4535,-10.455,-10.4564,-10.4579,-10.4194,-10.4552,-10.4551,-10.455,-10.455,-10.4549,0,-10.3399,-10.3456,-10.3581,-10.3714,-10.3821,-10.3777,-10.3878,-10.3969,-10.4109,-10.4193,-10.4302,-10.4466,-10.4597,-10.4649,-10.4776,-10.4863,-10.4848,-10.4896,-10.489,-10.4902,-10.4617,-10.4572,-10.4907,-10.4907,-10.4906,-10.4906,-10.4906,-10.4906,-10.3593,-10.3786,-10.3804,-10.4031,-10.4085,-10.4242,-10.4303,-10.4384,-10.4451,-10.4638,-10.4748,-10.4782,-10.4853,-10.4986,-10.5103,-10.5114,-10.5163,-10.522,-10.5224,-10.4957,-10.4921,-10.4887,-10.4844,-10.5231,-10.5231,-10.5498,-10.5501,-10.5503]}]]